Date,TemperatureHighF,TemperatureAvgF,TemperatureLowF,DewpointHighF,DewpointAvgF,DewpointLowF,HumidityHigh,HumidityAvg,HumidityLow,PressureMaxIn,PressureMinIn,WindSpeedMaxMPH,WindSpeedAvgMPH,GustSpeedMaxMPH,PrecipitationSumIn
2014-1-1,0.5,-4.4,-9.9,-6.9,-11.1,-16.8,74,72,68,30.65,30.55,9,1,10,0.00
2014-1-2,4.6,-3.7,-10.7,-8.5,-12.6,-16.1,78,66,42,30.65,30.52,5,0,6,0.00
2014-1-3,25.2,7.6,-12.1,23.0,2.9,-17.0,93,81,67,30.52,29.57,12,1,14,0.00
2014-1-4,33.4,15.9,-2.7,30.7,9.1,-9.6,92,74,62,30.36,29.53,14,2,18,0.00
2014-1-5,-2.7,-9.8,-20.9,-9.8,-17.4,-29.0,77,69,56,30.52,30.36,15,1,15,0.00
2014-1-6,-11.7,-18.1,-23.3,-21.3,-25.2,-30.3,77,69,61,30.47,30.36,12,1,13,0.00
2014-1-7,5.5,-6.2,-17.1,-7.1,-13.1,-21.6,81,72,53,30.42,30.30,8,1,8,0.00
2014-1-8,4.8,-4.2,-9.8,-6.9,-10.5,-14.3,83,74,56,30.63,30.42,4,0,4,0.00
2014-1-9,19.8,6.6,-10.3,13.1,1.4,-14.3,91,79,62,30.59,30.06,7,1,9,0.00
2014-1-10,28.9,23.7,14.4,27.9,22.4,11.5,97,95,89,30.06,29.57,7,0,7,0.00
2014-1-11,31.3,27.0,21.7,28.0,24.6,19.9,97,91,78,29.76,29.55,13,2,14,0.00
2014-1-12,39.7,32.0,20.5,31.5,27.1,18.9,95,83,69,29.72,29.44,10,2,11,0.13
2014-1-13,34.2,28.7,25.0,30.2,22.8,17.8,92,79,61,29.73,29.55,12,2,12,0.00
2014-1-14,27.0,18.6,6.8,25.2,14.2,1.8,95,83,68,30.22,29.55,17,2,20,0.00
2014-1-15,23.4,9.7,0.0,18.3,5.0,-3.5,89,81,70,30.25,29.52,15,1,17,0.00
2014-1-16,63.9,18.4,6.4,31.1,12.0,-1.5,95,76,56,29.96,29.45,18,4,20,0.00
2014-1-17,14.7,6.8,0.7,3.0,0.3,-4.4,84,74,58,30.16,29.92,17,1,18,0.00
2014-1-18,25.9,14.0,5.4,15.1,9.6,1.6,91,83,62,30.06,29.68,15,2,15,0.00
2014-1-19,39.4,29.3,15.6,29.1,23.6,12.4,89,80,67,29.83,29.52,18,3,18,0.07
2014-1-20,29.5,14.0,-3.8,25.7,6.7,-15.3,87,73,51,30.54,29.78,19,4,19,0.00
2014-1-21,3.6,-4.9,-12.8,0.3,-12.1,-18.9,86,71,57,30.59,30.14,8,0,10,0.00
2014-1-22,6.3,1.0,-8.3,2.7,-6.3,-15.7,87,71,56,30.62,30.10,13,2,21,0.00
2014-1-23,-3.6,-10.2,-17.0,-8.9,-16.2,-21.6,85,74,60,30.89,30.37,9,1,10,0.00
2014-1-24,31.8,22.0,-4.7,29.8,15.4,-8.9,96,76,50,30.37,29.58,17,4,18,0.00
2014-1-25,24.4,6.4,1.8,8.1,-6.5,-10.5,86,55,37,30.01,29.65,17,2,19,0.00
2014-1-26,17.2,5.3,-7.8,9.5,-0.9,-15.7,89,75,53,30.19,29.50,22,3,22,0.00
2014-1-27,-6.0,-11.7,-17.0,-15.5,-20.3,-24.7,77,65,54,30.58,30.19,14,1,14,0.00
2014-1-28,-0.6,-8.7,-16.8,-9.8,-15.2,-21.1,81,73,58,30.56,30.26,16,2,16,0.00
2014-1-29,25.2,2.1,-6.5,9.5,-5.9,-11.9,83,70,47,30.27,29.86,11,1,12,0.00
2014-1-30,28.4,13.5,-3.3,22.8,6.1,-11.2,93,72,58,30.15,29.56,17,2,20,0.00
2014-1-31,9.3,-1.4,-10.5,-1.7,-8.1,-14.3,83,73,58,30.30,30.15,10,1,11,0.00
2014-2-1,22.6,8.3,-1.8,13.3,1.5,-6.9,82,74,62,30.34,30.07,6,1,10,0.00
2014-2-2,14.2,2.4,-7.2,1.6,-3.9,-10.8,85,75,53,30.44,30.34,10,1,11,0.00
2014-2-3,16.5,6.6,-2.9,7.9,0.9,-6.0,88,77,63,30.50,30.31,6,0,6,0.00
2014-2-4,10.0,5.0,0.0,1.6,-2.1,-8.3,84,72,59,30.60,30.50,14,2,15,0.00
2014-2-5,3.6,-0.8,-4.7,-4.0,-8.0,-11.0,81,71,65,30.66,30.58,9,2,14,0.00
2014-2-6,3.4,-3.5,-12.3,-5.4,-9.5,-16.2,84,75,63,30.61,30.38,14,2,17,0.00
2014-2-7,12.4,2.5,-6.0,-0.4,-6.2,-11.2,83,68,46,30.38,30.29,17,3,18,0.00
2014-2-8,13.1,5.5,-5.6,8.1,1.0,-9.2,88,81,72,30.30,30.22,4,0,5,0.00
2014-2-9,10.4,1.6,-5.3,5.0,-6.2,-11.2,80,70,54,30.53,30.29,14,1,14,0.00
2014-2-10,7.5,-3.0,-11.0,-4.0,-10.3,-15.5,82,71,56,30.63,30.53,8,0,8,0.00
2014-2-11,11.5,1.1,-14.8,4.3,-5.4,-19.1,86,74,58,30.62,30.21,8,1,10,0.00
2014-2-12,23.5,16.9,10.4,17.1,12.9,4.3,90,84,75,30.23,29.91,6,0,7,0.00
2014-2-13,28.9,16.1,5.4,24.6,11.3,0.5,90,81,71,29.91,29.53,20,2,20,0.00
2014-2-14,16.2,7.5,0.7,4.6,0.7,-2.9,85,74,58,30.16,29.83,9,1,11,0.00
2014-2-15,17.6,8.0,-2.0,14.0,4.1,-5.3,88,84,72,30.17,29.91,7,0,8,0.00
2014-2-16,20.8,14.7,4.6,13.8,7.9,1.8,88,74,58,30.37,30.11,12,1,13,0.00
2014-2-17,28.2,22.3,18.3,24.6,18.7,12.9,96,86,73,30.12,29.75,10,1,12,0.00
2014-2-18,45.0,30.1,17.8,28.6,22.9,15.8,95,76,51,29.86,29.63,8,1,8,0.19
2014-2-19,43.2,31.5,22.8,31.3,26.3,20.5,92,81,60,29.91,29.76,9,2,11,0.01
2014-2-20,34.2,31.1,16.3,32.5,28.7,14.2,97,91,83,29.76,29.31,6,1,7,0.05
2014-2-21,16.2,11.5,5.7,14.0,7.8,3.0,92,85,77,29.88,29.34,10,0,11,0.00
2014-2-22,15.1,9.5,3.9,6.3,3.4,-0.6,82,76,66,30.26,29.88,9,1,9,0.00
2014-2-23,17.4,9.1,0.3,6.4,1.8,-3.6,83,72,59,30.39,30.25,11,1,12,0.00
2014-2-24,14.2,6.6,-1.5,4.3,-0.6,-6.2,85,72,54,30.45,30.38,7,1,9,0.00
2014-2-25,6.4,-0.2,-7.2,1.4,-8.4,-16.2,84,68,56,30.48,30.38,15,1,16,0.00
2014-2-26,18.9,2.1,-11.9,8.6,-6.6,-16.4,82,67,49,30.48,29.75,28,5,28,0.00
2014-2-27,2.7,-7.1,-14.3,-15.2,-19.7,-23.6,68,54,37,30.35,30.05,15,1,15,0.00
2014-2-28,12.9,2.7,-10.7,7.3,-4.3,-17.7,82,72,63,30.30,30.05,8,1,9,0.00
2014-3-1,7.9,-1.8,-7.2,0.1,-11.9,-18.9,73,61,49,30.67,30.30,16,1,16,0.00
2014-3-2,3.4,-5.3,-15.0,-10.1,-16.1,-23.6,70,59,44,30.73,30.64,9,0,10,0.00
2014-3-3,9.9,0.7,-10.7,1.2,-7.0,-15.0,83,70,51,30.70,30.39,6,0,7,0.00
2014-3-4,18.0,12.0,5.9,8.4,5.1,-0.2,85,74,63,30.42,30.29,11,1,11,0.00
2014-3-5,62.1,18.6,10.4,27.5,8.2,4.6,95,65,19,30.57,30.41,12,1,13,0.27
2014-3-6,26.4,18.9,9.3,21.6,13.6,3.9,87,79,68,30.46,29.93,11,1,13,0.00
2014-3-7,33.1,27.9,22.5,29.1,23.5,17.1,90,83,73,30.27,29.86,14,2,15,0.00
2014-3-8,29.7,21.9,15.3,17.1,13.6,9.3,85,71,45,30.41,30.26,12,2,13,0.00
2014-3-9,43.9,31.8,15.3,34.3,24.5,11.8,88,75,61,30.26,29.73,20,3,22,0.00
2014-3-10,72.3,68.9,39.9,34.2,28.2,22.8,79,22,17,29.73,29.65,5,0,6,0.00
2014-3-11,67.8,65.7,63.0,33.8,32.0,29.5,31,28,26,30.00,29.69,0,0,0,0.00
2014-3-12,66.7,64.3,62.1,30.2,26.2,24.4,28,24,21,30.13,29.99,0,0,0,0.00
2014-3-13,67.1,65.4,63.3,32.2,27.9,22.6,28,24,20,30.03,29.51,1,0,13,0.07
2014-3-14,67.3,65.7,62.2,35.2,32.4,29.7,31,29,27,29.96,29.49,0,0,0,0.00
2014-3-15,63.1,61.9,61.2,29.7,25.3,21.7,29,25,21,30.42,29.95,0,0,0,0.00
2014-3-16,62.8,62.0,61.2,21.7,18.7,16.0,21,19,17,30.50,30.03,0,0,0,0.00
2014-3-17,64.9,41.9,23.0,26.2,22.1,-12.8,87,56,19,30.03,29.60,9,1,9,0.03
2014-3-18,35.4,31.2,28.6,28.9,24.2,20.3,95,76,66,29.86,29.68,12,4,15,0.00
2014-3-19,34.9,30.2,25.9,27.3,24.6,22.3,94,80,64,30.06,29.84,10,2,14,0.02
2014-3-20,44.8,33.8,24.6,30.4,27.0,22.6,96,77,52,30.10,29.97,10,1,10,0.06
2014-3-21,44.4,33.9,24.4,35.1,27.6,18.0,85,78,68,30.20,29.78,18,3,18,0.00
2014-3-22,24.4,15.0,7.5,18.0,4.6,-0.2,77,63,50,30.61,30.20,14,2,15,0.00
2014-3-23,23.7,15.9,7.3,10.0,5.3,0.3,75,63,49,30.64,30.46,11,1,11,0.00
2014-3-24,30.6,22.0,12.9,24.6,13.2,5.0,90,70,42,30.47,30.19,14,1,15,0.00
2014-3-25,22.8,16.5,8.4,14.5,3.1,-2.6,74,55,43,30.40,30.19,16,3,18,0.00
2014-3-26,39.4,26.3,10.9,26.2,15.8,6.3,84,66,47,30.27,29.68,13,2,14,0.01
2014-3-27,39.7,35.2,29.8,36.5,32.8,26.2,98,92,59,29.79,29.52,21,2,22,0.33
2014-3-28,36.9,31.6,27.3,27.3,19.9,10.8,90,63,45,30.33,29.79,18,3,23,0.01
2014-3-29,42.6,33.4,22.3,27.0,16.6,10.8,75,51,28,30.36,30.15,8,1,9,0.00
2014-3-30,58.3,45.7,33.3,44.4,35.9,26.6,82,69,52,30.16,29.83,12,1,12,0.00
2014-3-31,57.0,47.0,29.8,48.0,39.4,27.0,91,75,66,29.83,29.38,25,2,31,0.02
2014-4-1,36.3,28.1,19.0,27.9,21.6,14.2,95,77,61,30.20,29.47,14,3,16,0.00
2014-4-2,39.9,31.7,20.1,24.3,20.4,15.4,82,64,48,30.29,30.13,14,3,15,0.00
2014-4-3,38.7,33.1,28.2,29.5,27.2,21.9,96,80,51,30.14,29.83,20,6,21,0.00
2014-4-4,40.6,32.0,24.8,28.0,25.7,23.4,95,79,55,30.11,29.76,18,4,18,0.19
2014-4-5,49.5,37.4,25.0,37.8,30.5,23.4,95,77,56,30.20,30.03,12,2,13,0.01
2014-4-6,61.5,49.1,39.9,43.9,36.6,30.6,80,63,41,30.03,29.84,16,2,18,0.00
2014-4-7,57.6,49.2,39.6,43.7,37.9,28.2,96,67,43,29.88,29.77,16,2,18,0.00
2014-4-8,51.1,43.0,34.0,31.8,27.0,23.9,70,54,36,30.04,29.84,17,2,17,0.00
2014-4-9,70.9,52.5,33.1,43.7,34.1,26.2,79,52,33,30.02,29.51,25,3,25,0.00
2014-4-10,63.7,54.2,46.6,43.7,27.9,16.2,60,38,20,29.96,29.54,21,4,21,0.00
2014-4-11,62.8,52.2,44.8,37.0,31.1,27.1,66,46,26,30.00,29.93,14,2,16,0.00
2014-4-12,54.1,48.4,42.4,45.9,39.9,30.9,89,74,42,29.95,29.73,18,4,22,0.16
2014-4-13,44.1,39.7,32.4,40.8,34.2,23.2,92,81,64,29.97,29.78,25,5,26,0.00
2014-4-14,36.3,30.4,26.1,23.0,12.6,3.7,69,49,28,30.18,29.96,23,6,25,0.00
2014-4-15,36.9,28.0,18.5,15.6,7.3,-0.6,62,43,21,30.25,30.13,13,2,18,0.00
2014-4-16,36.5,33.4,31.5,33.1,25.0,15.4,95,73,48,30.15,29.95,19,5,19,0.71
2014-4-17,41.4,33.1,28.6,30.2,27.3,25.0,95,80,57,30.39,30.01,17,2,17,0.01
2014-4-18,50.7,39.9,27.0,32.5,27.6,23.9,93,65,39,30.45,30.26,10,1,13,0.00
2014-4-19,64.9,51.8,41.2,54.5,39.9,27.9,94,65,50,30.26,30.01,15,2,15,0.13
2014-4-20,73.2,61.5,50.4,54.9,49.4,39.6,97,69,32,30.08,29.94,8,1,9,0.08
2014-4-21,72.7,59.7,45.1,56.7,43.7,27.9,95,61,28,30.10,29.86,23,2,23,0.22
2014-4-22,56.7,47.3,37.6,31.1,27.8,23.4,69,48,32,30.16,30.08,18,3,18,0.00
2014-4-23,46.6,42.3,39.4,38.5,31.8,23.7,91,68,44,30.15,29.97,15,2,15,0.22
2014-4-24,43.9,41.4,38.7,41.9,39.2,37.2,97,92,80,29.98,29.72,12,2,13,0.79
2014-4-25,63.3,48.7,37.2,42.8,39.2,32.0,97,72,43,29.97,29.76,14,3,17,0.00
2014-4-26,54.3,45.2,36.0,39.4,32.5,29.3,81,63,41,30.07,29.93,21,5,21,0.07
2014-4-27,45.3,40.1,36.9,39.0,36.3,33.8,94,86,70,29.98,29.70,27,8,30,2.00
2014-4-28,44.1,42.2,39.9,39.9,38.5,36.1,94,87,76,29.76,29.65,26,9,28,1.02
2014-4-29,42.1,36.2,33.3,36.9,34.1,31.8,96,92,77,29.81,29.69,22,7,24,0.76
2014-4-30,43.5,38.6,34.0,39.2,36.1,32.7,96,91,81,29.81,29.78,18,4,20,0.02
2014-5-1,48.0,42.3,37.0,41.0,38.2,35.8,95,86,71,29.88,29.74,12,2,13,0.04
2014-5-2,58.3,49.2,42.4,44.6,40.6,37.8,87,73,50,29.88,29.62,16,2,16,0.00
2014-5-3,58.8,50.9,43.9,39.2,34.0,28.8,72,53,34,29.98,29.72,15,3,17,0.00
2014-5-4,57.9,47.7,36.9,32.5,27.8,21.7,72,48,28,30.16,29.98,14,2,14,0.00
2014-5-5,64.4,56.1,49.5,36.5,32.6,29.1,52,41,30,30.04,29.94,12,2,14,0.00
2014-5-6,65.1,56.1,44.8,38.7,36.5,33.8,72,49,35,30.02,29.80,23,3,23,0.00
2014-5-7,64.4,57.0,50.4,51.1,44.2,36.5,80,62,51,29.83,29.65,20,5,22,0.00
2014-5-8,67.8,57.2,50.9,60.8,53.8,47.8,98,89,71,29.83,29.53,17,3,20,0.42
2014-5-9,60.3,52.1,47.1,58.3,45.0,37.2,98,78,51,29.84,29.52,19,4,20,0.00
2014-5-10,69.6,56.4,44.1,53.2,44.0,33.4,92,66,33,29.93,29.80,8,1,9,0.12
2014-5-11,67.8,59.9,50.0,57.4,53.4,48.6,97,80,63,29.93,29.77,11,1,12,0.36
2014-5-12,62.8,57.4,48.7,61.0,56.0,47.1,98,95,88,29.82,29.67,12,1,12,0.60
2014-5-13,51.8,48.4,45.0,46.8,39.8,34.7,93,73,55,30.22,29.81,12,2,14,0.00
2014-5-14,59.7,49.5,39.2,38.5,32.7,27.3,88,56,30,30.28,30.15,16,2,18,0.00
2014-5-15,71.1,55.4,39.4,50.2,35.8,27.9,73,50,33,30.22,30.13,16,2,18,0.00
2014-5-16,71.6,68.1,64.9,42.3,40.6,38.8,39,37,34,30.14,30.03,0,0,0,0.00
2014-5-17,69.3,66.9,64.6,42.4,40.2,38.5,39,38,35,30.05,29.98,0,0,0,0.00
2014-5-18,70.7,68.4,65.8,44.2,42.2,40.3,40,39,37,30.09,29.98,0,0,0,0.00
2014-5-19,72.3,70.1,67.6,47.7,45.2,42.6,46,41,38,30.02,29.75,0,0,0,0.00
2014-5-20,74.5,70.5,66.6,54.0,49.4,45.5,50,47,44,29.88,29.74,0,0,0,0.00
2014-5-21,74.7,71.9,69.3,52.5,50.7,49.6,52,47,42,30.11,29.83,0,0,0,0.00
2014-5-22,74.8,71.5,68.0,49.8,48.8,47.5,49,45,40,30.20,30.11,7,0,7,0.00
2014-5-23,75.4,72.6,69.4,50.4,48.9,47.8,46,43,40,30.24,30.11,0,0,12,0.00
2014-5-24,73.9,71.8,70.0,50.5,49.4,48.2,47,45,43,30.16,30.03,0,0,0,0.00
2014-5-25,73.2,71.6,69.6,51.3,50.0,48.6,48,46,45,30.07,29.90,0,0,0,0.00
2014-5-26,75.2,73.2,70.9,54.5,52.3,50.7,50,48,46,29.92,29.84,0,0,0,0.00
2014-5-27,76.1,74.8,72.9,61.0,57.5,54.3,60,55,49,29.97,29.85,9,0,9,0.00
2014-5-28,78.8,75.2,71.8,59.5,57.9,56.3,59,55,50,30.07,29.96,0,0,0,0.00
2014-5-29,80.6,76.9,72.9,57.9,56.4,55.4,56,49,43,30.12,30.03,4,0,12,0.00
2014-5-30,81.9,78.5,74.8,61.0,57.6,54.3,52,49,44,30.12,30.00,0,0,0,0.00
2014-5-31,79.3,77.0,75.2,59.4,57.3,56.1,52,51,48,30.05,29.88,0,0,0,0.00
2014-6-1,75.6,74.1,73.2,57.0,56.6,56.1,56,54,52,29.89,29.72,0,0,0,0.00
2014-6-2,78.6,75.3,72.1,61.2,58.6,56.1,58,56,54,29.82,29.65,0,0,0,0.00
2014-6-3,80.1,76.3,72.9,59.2,56.7,55.4,58,51,44,29.96,29.82,2,0,7,0.01
2014-6-4,81.0,76.6,73.0,56.7,54.8,49.5,52,47,35,29.88,29.80,11,0,11,0.06
2014-6-5,78.8,75.1,65.7,61.2,57.0,50.4,83,54,38,29.91,29.80,10,0,11,0.04
2014-6-6,80.1,76.2,73.6,60.1,58.3,56.5,58,54,50,29.95,29.86,0,0,0,0.00
2014-6-7,77.7,74.5,72.1,59.5,56.7,54.5,55,54,52,30.08,29.88,0,0,0,0.01
2014-6-8,73.0,71.6,70.2,54.5,53.5,52.7,54,53,51,30.13,30.03,0,0,0,0.00
2014-6-9,73.2,72.2,71.1,53.4,52.8,52.2,53,50,49,30.06,29.96,0,0,0,0.00
2014-6-10,77.4,72.5,64.0,57.6,52.1,46.2,62,49,35,29.96,29.84,12,1,12,0.01
2014-6-11,81.1,71.1,57.9,61.7,54.3,48.6,86,57,41,29.87,29.64,9,0,10,0.05
2014-6-12,65.5,60.2,55.8,62.8,50.1,45.0,94,70,55,29.98,29.63,18,2,18,0.09
2014-6-13,74.5,64.6,50.5,50.5,45.6,41.9,79,52,33,30.06,29.90,7,1,7,0.00
2014-6-14,64.6,61.0,57.9,58.1,53.0,46.2,92,76,52,29.97,29.69,20,2,20,1.23
2014-6-15,74.7,65.5,56.8,62.6,56.9,53.8,97,76,49,29.83,28.49,22,4,22,1.22
2014-6-16,87.8,73.0,60.8,63.3,58.1,54.0,82,61,42,28.87,28.63,12,1,15,0.05
2014-6-17,79.5,75.9,72.9,62.4,59.6,57.0,58,57,55,28.83,28.64,0,0,0,0.00
2014-6-18,80.1,77.5,75.4,63.0,61.4,60.1,59,58,55,28.91,28.75,0,0,0,0.00
2014-6-19,77.7,76.6,74.7,63.9,62.4,60.6,65,62,59,29.05,28.83,0,0,0,0.00
2014-6-20,79.3,76.3,73.4,63.5,62.2,60.8,66,62,58,28.92,28.79,0,0,0,0.00
2014-6-21,79.3,76.8,74.7,62.6,61.7,60.8,63,60,56,28.89,28.79,0,0,0,0.00
2014-6-22,78.4,75.6,74.7,62.1,60.4,59.7,61,59,57,28.87,28.77,0,0,0,0.00
2014-6-23,79.0,75.8,73.0,63.0,60.7,59.2,62,60,56,28.84,28.77,3,0,8,0.01
2014-6-24,83.1,75.6,66.6,65.5,61.3,56.1,87,62,41,28.92,28.84,13,1,14,0.00
2014-6-25,69.1,62.1,55.6,63.1,56.9,52.3,92,84,70,29.03,28.92,9,1,9,0.00
2014-6-26,80.6,69.8,57.0,69.6,63.5,55.9,97,81,64,29.01,28.85,13,1,13,0.00
2014-6-27,79.3,73.7,69.1,71.1,68.1,65.1,93,83,73,28.87,28.73,8,0,9,0.00
2014-6-28,82.9,73.4,66.7,74.3,69.6,65.1,98,88,73,28.78,28.63,17,0,17,0.88
2014-6-29,83.3,73.5,63.0,69.6,64.3,58.5,98,75,44,28.72,28.64,21,3,22,0.01
2014-6-30,79.9,71.7,64.0,68.2,60.3,52.2,89,69,47,28.68,28.48,17,2,19,0.00
2014-7-1,73.8,65.3,57.2,62.6,57.0,50.4,92,75,57,28.79,28.49,15,2,15,0.02
2014-7-2,72.9,63.1,54.5,52.3,48.0,41.0,89,61,36,29.06,28.79,15,2,15,0.00
2014-7-3,76.3,66.9,58.3,54.3,49.1,44.8,70,54,35,29.17,29.05,8,0,8,0.00
2014-7-4,77.4,68.9,56.3,57.6,53.5,48.6,88,60,38,29.23,29.07,9,0,9,0.00
2014-7-5,82.0,73.4,63.5,68.9,63.4,54.5,88,71,61,29.10,28.85,14,1,16,0.00
2014-7-6,88.2,75.9,67.8,75.2,67.8,60.6,98,78,45,28.87,28.65,15,1,16,0.09
2014-7-7,84.7,73.6,65.8,67.8,63.1,60.3,93,71,50,28.75,28.60,16,2,17,0.34
2014-7-8,75.0,68.8,62.8,61.0,56.2,50.2,86,66,48,28.88,28.62,10,1,12,0.00
2014-7-9,77.7,68.1,58.3,57.7,54.2,49.6,83,63,38,28.98,28.88,7,0,8,0.00
2014-7-10,83.5,72.7,59.5,66.9,61.0,55.8,92,69,47,29.03,28.93,11,0,11,0.00
2014-7-11,78.3,72.2,63.9,71.6,65.7,60.6,97,81,66,29.01,28.90,17,1,17,1.33
2014-7-12,78.1,70.7,66.9,72.9,67.9,64.8,97,91,81,28.98,28.89,15,0,16,0.14
2014-7-13,75.2,69.5,63.3,65.3,55.1,46.0,94,63,40,28.94,28.84,15,1,15,0.00
2014-7-14,64.8,60.7,55.4,54.5,50.5,45.1,91,70,55,29.00,28.84,12,1,13,0.15
2014-7-15,70.0,62.1,54.0,54.0,51.6,48.2,89,70,49,29.04,28.97,13,1,14,0.00
2014-7-16,74.5,66.0,55.0,56.3,50.8,44.8,89,61,39,29.03,28.96,10,0,10,0.00
2014-7-17,77.7,68.6,58.6,59.4,54.7,50.7,84,62,44,29.02,28.96,9,0,11,0.00
2014-7-18,78.1,69.4,57.9,62.8,58.5,55.0,91,69,54,29.02,28.91,12,1,14,0.00
2014-7-19,77.5,71.7,64.4,65.5,62.0,59.0,84,72,61,28.91,28.85,14,1,16,0.00
2014-7-20,84.6,76.8,68.7,70.2,66.3,63.1,85,71,56,28.86,28.78,10,1,12,0.00
2014-7-21,88.0,80.5,72.9,77.9,72.4,66.7,85,76,68,28.89,28.77,7,0,8,0.00
2014-7-22,83.5,79.5,75.0,76.5,67.9,63.3,90,69,53,29.11,28.75,12,0,14,0.00
2014-7-23,80.2,77.4,75.0,64.4,60.6,57.6,64,56,50,29.21,29.10,0,0,0,0.00
2014-7-24,79.9,75.0,73.9,59.7,57.4,55.0,60,53,46,29.13,28.73,8,0,8,0.00
2014-7-25,78.3,76.3,75.0,59.7,58.1,55.9,56,53,51,28.90,28.72,0,0,0,0.00
2014-7-26,77.9,76.6,75.7,61.9,60.7,59.5,59,58,56,28.81,28.73,0,0,0,0.00
2014-7-27,77.7,76.6,75.7,61.7,60.9,60.1,59,58,58,29.08,28.73,0,0,0,0.00
2014-7-28,78.1,76.6,75.4,61.0,57.6,52.5,59,52,43,29.16,29.08,0,0,0,0.00
2014-7-29,79.2,74.3,65.7,62.6,57.7,55.0,77,57,45,29.09,28.99,13,0,17,0.01
2014-7-30,79.7,70.3,59.2,63.0,58.0,54.7,94,67,43,29.05,28.98,5,0,8,0.00
2014-7-31,81.5,72.5,62.6,61.3,57.6,52.7,85,61,39,29.00,28.95,8,0,8,0.00
2014-8-1,84.0,73.2,63.9,66.6,61.4,58.3,87,68,42,29.03,28.97,5,0,7,0.01
2014-8-2,84.9,73.3,64.0,67.3,62.7,58.6,92,72,42,29.08,29.01,9,1,11,0.01
2014-8-3,85.3,74.8,65.1,69.1,65.1,61.2,93,74,47,29.08,28.99,9,0,11,0.03
2014-8-4,79.3,72.6,66.0,67.5,63.9,59.9,91,75,55,29.04,28.97,11,1,11,0.00
2014-8-5,77.9,70.2,61.5,63.9,61.0,56.1,94,74,48,29.09,29.02,11,1,11,0.00
2014-8-6,81.9,72.4,61.5,63.0,60.2,55.8,89,67,47,29.07,28.99,8,0,8,0.00
2014-8-7,82.2,72.6,61.7,65.3,61.0,57.7,92,69,46,29.05,28.97,7,0,7,0.00
2014-8-8,82.0,73.0,64.9,63.7,60.1,54.9,86,66,41,29.07,29.00,5,0,10,0.00
2014-8-9,79.0,71.9,64.2,63.9,61.2,56.8,85,70,50,29.09,29.02,8,0,8,0.00
2014-8-10,82.6,72.7,66.0,67.8,64.2,61.3,90,76,52,29.04,28.91,7,0,7,0.00
2014-8-11,75.2,67.4,62.4,68.4,63.2,57.4,96,87,55,29.01,28.86,17,1,17,0.16
2014-8-12,78.3,68.5,57.6,60.4,55.7,49.8,97,67,39,29.03,28.96,13,1,14,0.00
2014-8-13,80.2,71.8,63.0,63.1,58.7,53.8,83,64,48,29.06,28.97,11,2,11,0.00
2014-8-14,79.3,68.6,57.7,59.2,54.5,49.1,74,61,45,29.10,28.96,8,0,8,0.00
2014-8-15,84.4,73.1,61.3,67.5,62.5,55.8,86,70,52,28.97,28.83,7,0,9,0.00
2014-8-16,84.9,74.2,66.0,70.9,67.7,63.9,94,81,59,28.89,28.80,9,1,9,0.00
2014-8-17,77.9,70.9,67.3,71.4,67.7,64.6,96,90,80,28.94,28.81,9,1,10,0.78
2014-8-18,84.6,73.6,66.7,72.3,67.4,63.5,98,83,52,28.84,28.60,10,1,10,1.07
2014-8-19,79.2,70.1,63.9,66.7,64.2,62.1,95,83,59,28.76,28.62,10,0,10,0.00
2014-8-20,81.1,72.4,63.9,68.5,65.8,62.8,97,81,61,28.84,28.75,8,1,9,0.00
2014-8-21,82.6,74.5,67.6,75.7,70.8,64.4,97,88,79,28.84,28.69,13,1,14,0.17
2014-8-22,76.6,72.5,69.6,72.5,69.5,67.6,98,90,80,28.98,28.81,7,0,9,0.00
2014-8-23,76.6,71.5,68.2,72.9,69.4,66.4,97,93,87,28.97,28.86,10,2,11,0.00
2014-8-24,87.3,77.6,72.0,76.8,73.2,70.2,95,87,68,28.87,28.76,8,0,8,0.04
2014-8-25,78.8,72.3,65.8,71.1,61.3,53.4,96,70,44,29.03,28.83,8,1,12,0.00
2014-8-26,73.9,64.5,55.9,57.4,52.2,47.3,80,65,46,29.18,29.02,9,0,9,0.00
2014-8-27,75.6,66.9,58.8,59.7,57.2,54.5,89,72,54,29.20,29.06,8,1,9,0.00
2014-8-28,72.1,65.3,59.2,65.3,60.9,55.6,95,86,72,29.10,28.86,8,0,8,0.04
2014-8-29,78.3,70.3,65.7,72.3,67.8,64.0,98,92,78,28.87,28.68,7,0,9,0.64
2014-8-30,72.9,68.4,64.2,66.7,64.0,61.2,98,86,71,28.85,28.71,10,1,10,0.48
2014-8-31,84.4,70.7,61.0,72.3,65.6,59.9,98,85,62,28.87,28.58,20,1,20,0.23
2014-9-1,76.3,68.9,64.0,65.5,61.1,55.0,98,78,49,28.77,28.59,14,1,14,0.84
2014-9-2,77.5,69.4,61.2,60.1,56.6,48.4,90,66,37,28.86,28.77,8,1,10,0.00
2014-9-3,77.2,67.0,59.7,72.3,63.2,56.5,97,88,75,28.88,28.63,6,0,7,0.14
2014-9-4,84.0,75.0,67.5,77.0,70.9,60.3,96,87,74,28.84,28.59,10,1,15,0.00
2014-9-5,69.3,60.6,55.9,60.6,52.0,48.9,81,73,63,29.13,28.84,8,0,9,0.00
2014-9-6,76.1,63.4,52.5,57.0,52.4,48.4,90,69,46,29.15,29.08,7,1,9,0.00
2014-9-7,75.9,66.0,56.1,54.1,51.0,43.9,81,61,33,29.12,28.97,12,2,13,0.00
2014-9-8,76.5,64.8,56.5,60.8,56.0,51.8,86,74,53,28.98,28.80,7,0,10,0.01
2014-9-9,73.9,67.3,60.6,68.4,63.5,58.3,95,88,79,28.84,28.69,3,0,4,0.10
2014-9-10,66.7,53.1,45.5,65.5,50.3,41.2,97,90,81,29.06,28.61,18,4,22,0.16
2014-9-11,55.0,49.0,43.0,42.1,39.4,35.1,89,71,48,29.33,29.06,13,2,13,0.00
2014-9-12,53.8,47.6,43.7,42.1,38.0,30.6,90,71,43,29.38,29.29,8,0,11,0.00
2014-9-13,61.0,49.6,38.5,41.9,38.2,33.1,95,68,39,29.30,29.10,10,0,10,0.00
2014-9-14,64.2,55.6,49.8,47.3,43.3,36.1,81,65,38,29.11,29.04,10,1,12,0.00
2014-9-15,61.2,53.6,48.0,49.5,43.7,37.4,94,71,43,29.17,29.08,9,0,10,0.05
2014-9-16,67.1,55.1,45.0,49.1,43.8,40.3,84,68,44,29.16,28.96,7,1,10,0.00
2014-9-17,73.9,61.4,53.1,56.8,52.5,48.0,87,74,51,28.99,28.90,6,0,8,0.00
2014-9-18,73.2,58.9,47.3,59.7,53.3,45.7,95,83,59,29.07,28.95,6,1,7,0.00
2014-9-19,79.3,66.4,56.7,68.0,59.6,51.1,92,80,62,28.96,28.61,13,1,15,0.00
2014-9-20,77.2,67.0,56.7,68.2,59.7,52.5,93,79,49,28.81,28.64,8,1,11,0.16
2014-9-21,64.9,57.6,51.4,52.5,48.6,46.8,90,73,53,29.18,28.79,11,1,14,0.01
2014-9-22,70.9,59.0,48.7,54.1,50.9,47.3,96,76,51,29.22,29.10,7,1,8,0.00
2014-9-23,74.3,61.6,48.7,57.9,52.4,46.8,95,74,47,29.19,29.09,6,0,7,0.00
2014-9-24,63.0,60.6,57.0,57.2,54.6,52.3,92,81,71,29.15,29.09,4,0,8,0.05
2014-9-25,77.4,65.7,58.5,63.7,58.8,55.0,91,79,60,29.17,29.11,5,0,6,0.00
2014-9-26,80.8,67.5,57.4,60.8,58.1,54.9,94,74,47,29.15,29.06,6,0,8,0.00
2014-9-27,83.8,69.9,59.7,64.4,60.1,57.2,92,73,46,29.12,29.03,7,0,8,0.00
2014-9-28,82.6,69.9,58.8,63.1,58.4,54.5,94,69,40,29.10,28.98,6,0,8,0.00
2014-9-29,68.7,55.5,44.4,59.5,50.1,40.8,93,82,65,29.10,28.97,12,3,14,0.21
2014-9-30,57.4,48.2,40.8,47.1,42.7,38.1,92,82,66,29.07,28.80,12,2,12,0.00
2014-10-1,57.0,52.0,48.6,56.5,50.2,45.0,98,94,84,28.85,28.73,5,0,7,1.03
2014-10-2,58.8,55.4,50.4,57.7,54.6,49.8,98,97,95,28.82,28.70,13,0,13,0.91
2014-10-3,50.4,44.4,36.0,49.8,37.8,27.9,98,79,53,28.78,28.67,11,1,17,0.05
2014-10-4,52.3,42.2,34.5,36.5,33.2,29.1,95,72,45,28.75,28.65,8,1,11,0.12
2014-10-5,49.8,40.7,33.3,36.3,33.1,29.5,89,75,54,28.65,28.52,11,1,12,0.00
2014-10-6,61.9,47.1,34.3,43.0,37.7,32.7,95,72,45,28.52,28.39,13,2,15,0.00
2014-10-7,60.6,51.5,45.3,44.8,38.1,30.4,81,62,42,28.82,28.44,15,1,15,0.00
2014-10-8,59.4,48.5,40.1,39.6,33.9,27.0,86,59,33,29.04,28.82,10,1,10,0.00
2014-10-9,54.5,43.9,34.0,36.3,32.6,29.1,85,66,44,29.17,29.04,11,0,11,0.00
2014-10-10,53.1,44.1,35.1,38.1,34.1,31.3,92,69,48,29.23,29.15,7,0,8,0.00
2014-10-11,59.4,45.2,32.7,37.9,33.2,30.4,95,66,36,29.21,28.95,7,0,8,0.00
2014-10-12,64.8,49.4,37.8,47.5,39.1,32.9,88,70,37,28.95,28.73,7,0,10,0.00
2014-10-13,57.0,52.8,50.2,51.1,49.4,47.3,95,89,78,28.78,28.72,13,1,15,0.08
2014-10-14,63.0,54.1,48.4,48.6,43.5,37.2,95,70,40,28.93,28.72,22,5,24,0.01
2014-10-15,64.8,52.3,43.2,42.8,39.1,34.3,85,63,33,28.98,28.82,10,1,10,0.00
2014-10-16,74.5,55.5,37.9,48.6,42.5,36.5,96,65,34,28.82,28.53,17,1,22,0.00
2014-10-17,58.6,52.7,50.2,48.7,44.6,-46.5,82,74,65,29.00,28.54,15,2,17,0.00
2014-10-18,54.9,46.2,39.0,41.9,36.2,33.4,82,69,48,29.19,29.00,21,2,21,0.00
2014-10-19,68.4,53.3,39.4,46.9,41.9,34.7,87,67,46,29.07,28.73,17,2,17,0.00
2014-10-20,63.0,53.9,45.7,45.5,42.7,40.1,82,67,47,29.04,28.82,14,2,14,0.00
2014-10-21,57.9,47.7,38.1,42.1,39.8,36.5,96,75,54,29.16,29.04,10,0,11,0.00
2014-10-22,59.5,49.1,38.5,44.1,40.2,36.1,92,73,55,29.17,28.98,8,1,9,0.00
2014-10-23,68.4,55.1,47.7,54.7,49.4,42.4,96,83,49,28.99,28.90,7,0,8,0.14
2014-10-24,65.3,54.7,45.1,56.8,50.8,44.6,98,87,70,28.94,28.79,9,1,9,0.01
2014-10-25,63.3,57.1,48.0,49.1,33.3,25.0,69,41,25,29.01,28.84,11,2,12,0.00
2014-10-26,64.6,51.2,36.5,35.2,31.4,28.2,85,49,27,29.00,28.60,7,0,8,0.00
2014-10-27,67.6,55.1,46.8,46.8,39.9,34.0,83,58,41,28.68,28.51,11,1,11,0.00
2014-10-28,47.7,42.7,39.4,42.1,36.4,31.6,93,79,64,28.92,28.66,16,3,20,0.00
2014-10-29,42.3,38.7,34.9,33.3,31.6,30.0,88,76,67,29.11,28.92,10,1,10,0.00
2014-10-30,47.7,40.2,31.8,39.2,32.7,14.4,90,75,45,29.30,29.00,24,2,24,0.00
2014-10-31,38.5,31.3,26.4,20.1,18.1,15.1,70,58,43,29.50,29.30,13,3,19,0.00
2014-11-1,44.8,32.4,22.3,25.3,21.2,18.1,86,65,40,29.42,29.13,8,0,9,0.00
2014-11-2,57.6,44.7,34.2,31.6,27.2,21.2,64,51,36,29.14,28.85,10,1,12,0.00
2014-11-3,53.6,47.3,41.7,49.3,40.4,29.8,95,77,58,28.85,28.73,12,1,12,0.03
2014-11-4,53.1,44.2,37.6,39.2,32.6,28.9,84,64,44,28.97,28.78,21,3,24,0.00
2014-11-5,43.3,38.2,34.3,38.3,34.4,29.7,95,86,74,28.98,28.83,13,2,15,0.07
2014-11-6,43.9,36.1,30.6,32.5,29.8,26.8,93,79,53,29.23,28.96,16,2,16,0.01
2014-11-7,37.2,31.7,29.5,31.6,28.8,27.5,93,89,78,29.16,28.86,5,0,6,0.00